GLOBALSTAR M001 1 25162U 98008A 26063.06087346 -.00000060 00000+0 27871-3 0 9996 2 25162 52.0035 296.8314 0002327 83.2312 64.9258 12.38229167275907 GLOBALSTAR M004 1 25163U 98008B 26062.18864440 -.00000072 00000+0 17405-3 0 9992 2 25163 52.0033 343.9895 0003393 135.3668 20.0693 12.63415761294420 GLOBALSTAR M002 1 25164U 98008C 26063.14396877 -.00000079 00000+0 -47804-4 0 9999 2 25164 52.0029 308.4055 0000575 265.7178 94.3577 11.61515233214275 GLOBALSTAR M003 1 25165U 98008D 26063.20614834 -.00000173 00000+0 -89274-3 0 9994 2 25165 51.9856 168.3234 0008784 96.2254 266.7166 12.12025408264750 GLOBALSTAR M014 1 25306U 98023A 26062.83715899 -.00000090 00000+0 -23854-3 0 9999 2 25306 51.9813 226.9347 0001927 109.2040 38.9099 11.65484919221442 GLOBALSTAR M006 1 25307U 98023B 26063.01489058 -.00000042 00000+0 68388-3 0 9993 2 25307 51.9936 288.6747 0002433 208.3292 300.5624 11.58177474246931 GLOBALSTAR M015 1 25308U 98023C 26063.11376870 -.00000075 00000+0 -28061-4 0 9994 2 25308 51.9842 38.8075 0012667 178.1283 263.9387 11.48860619223955 GLOBALSTAR M008 1 25309U 98023D 26062.48533414 -.00000077 00000+0 15253-3 0 9992 2 25309 51.9961 166.2734 0002418 17.4955 64.4311 12.36081264269916 GLOBALSTAR M023 1 25621U 99004A 26063.21155012 -.00000116 00000+0 -68606-4 0 9991 2 25621 52.0137 341.6523 0009766 345.3566 179.1947 12.62518014248574 GLOBALSTAR M040 1 25622U 99004B 26063.20828221 -.00000064 00000+0 22281-3 0 9999 2 25622 51.9947 346.1984 0000271 228.0558 296.8731 12.62029311248084 GLOBALSTAR M036 1 25623U 99004C 26063.09836169 -.00000047 00000+0 51344-3 0 9990 2 25623 51.9957 275.2388 0010321 185.3825 324.0923 11.86620250209836 GLOBALSTAR M038 1 25624U 99004D 26063.17397183 -.00000083 00000+0 10285-3 0 9997 2 25624 51.9991 42.8269 0001523 231.8909 212.3591 12.32541859234438 GLOBALSTAR M022 1 25649U 99012A 26062.92561414 -.00000037 00000+0 59347-3 0 9996 2 25649 52.0051 304.8097 0002498 340.9644 134.6132 12.02510493207629 GLOBALSTAR M041 1 25650U 99012B 26062.65170328 -.00000107 00000+0 -27916-3 0 9994 2 25650 52.0006 194.9121 0002167 113.0669 247.0396 11.96684543209348 GLOBALSTAR M046 1 25651U 99012C 26062.96192245 -.00000182 00000+0 -10229-2 0 9992 2 25651 52.0033 245.3610 0002657 63.5619 103.6458 12.09419704215096 GLOBALSTAR M037 1 25652U 99012D 26063.17300822 -.00000113 00000+0 -51462-4 0 9999 2 25652 51.9997 112.2889 0002065 54.7501 340.1878 12.62461867244114 GLOBALSTAR M045 1 25676U 99019A 26062.96741194 -.00000040 00000+0 47492-3 0 9994 2 25676 51.9966 284.8349 0001017 69.7435 69.2758 12.27073706225286 GLOBALSTAR M019 1 25677U 99019B 26063.05043681 -.00000128 00000+0 -39564-3 0 9991 2 25677 51.9879 73.2487 0001667 125.8095 268.2560 12.13886805216706 GLOBALSTAR M044 1 25678U 99019C 26063.18393310 -.00000083 00000+0 84436-5 0 9992 2 25678 51.9975 56.7609 0006199 178.8972 279.5410 11.90262513202288 GLOBALSTAR M042 1 25679U 99019D 26063.15725205 -.00000110 00000+0 -16685-3 0 9993 2 25679 52.0033 37.0405 0003083 111.4534 332.7533 12.22094520217043 GLOBALSTAR M025 1 25770U 99031A 26063.07677729 -.00000069 00000+0 -60480-4 0 9993 2 25770 51.9805 277.2194 0001755 186.0995 344.5714 11.22560541510897 GLOBALSTAR M049 1 25771U 99031B 26063.10601808 -.00000112 00000+0 -16359-2 0 9996 2 25771 51.9908 324.9747 0003392 92.3731 267.7454 11.12122043146344 GLOBALSTAR M047 1 25772U 99031C 26063.03815208 -.00000048 00000+0 60248-3 0 9994 2 25772 51.9838 297.2736 0016416 352.4475 7.6082 11.31932503500537 GLOBALSTAR M052 1 25773U 99031D 26062.41096633 -.00000014 00000+0 17575-2 0 9996 2 25773 51.9864 71.5744 0002566 236.8754 272.5101 11.15063937507423 GLOBALSTAR M035 1 25851U 99037A 26062.68219458 -.00000100 00000+0 -13565-2 0 9992 2 25851 51.9926 196.2616 0013925 46.8289 55.1803 11.04541444124932 GLOBALSTAR M032 1 25852U 99037B 26063.17311310 -.00000017 00000+0 15859-2 0 9992 2 25852 52.0001 2.4300 0012371 245.2185 114.7327 11.19068210163893 GLOBALSTAR M051 1 25853U 99037C 26063.14251299 -.00000046 00000+0 64821-3 0 9995 2 25853 51.9780 133.7813 0000735 131.8662 228.2211 11.42200323162097 GLOBALSTAR M030 1 25854U 99037D 26063.03317154 -.00000094 00000+0 -40740-3 0 9995 2 25854 51.9871 283.6271 0004222 131.7008 228.4171 11.55104081180073 GLOBALSTAR M048 1 25872U 99041A 26063.08389531 -.00000053 00000+0 47209-3 0 9994 2 25872 51.9364 79.0004 0013188 273.9428 118.8159 11.33862664154463 GLOBALSTAR M026 1 25873U 99041B 26063.17918586 .00000040 00000+0 38242-2 0 9994 2 25873 52.0031 310.3751 0002103 359.4264 172.5665 11.06842056177276 GLOBALSTAR M043 1 25874U 99041C 26062.75214104 -.00000073 00000+0 -13681-3 0 9992 2 25874 51.9381 197.7735 0013498 38.1418 110.3055 11.25697858152100 GLOBALSTAR M028 1 25875U 99041D 26063.14477241 -.00000059 00000+0 26197-3 0 9999 2 25875 51.9621 137.9075 0062909 275.8053 83.5638 12.50596806222709 GLOBALSTAR M024 1 25883U 99043A 26062.51760671 -.00000031 00000+0 12099-2 0 9997 2 25883 52.0010 155.4792 0002250 151.1147 299.1322 11.10172009143668 GLOBALSTAR M027 1 25884U 99043B 26062.72356711 -.00000062 00000+0 67410-4 0 9990 2 25884 52.0186 240.3518 0021924 52.3343 307.9435 11.04373538169914 GLOBALSTAR M054 1 25885U 99043C 26063.12758834 -.00000046 00000+0 63784-3 0 9999 2 25885 52.0170 323.1272 0004076 268.1703 241.4985 11.39224856148679 GLOBALSTAR M053 1 25886U 99043D 26063.08278719 -.00000044 00000+0 71721-3 0 9992 2 25886 51.9976 284.7509 0003720 148.0404 13.1664 11.27670891148765 GLOBALSTAR M058 1 25907U 99049A 26063.16393006 -.00000082 00000+0 33430-4 0 9996 2 25907 51.9935 134.9614 0002259 65.0871 295.0198 11.93208088572570 GLOBALSTAR M050 1 25908U 99049B 26063.13496001 .00000018 00000+0 11966-2 0 9999 2 25908 51.9981 123.2930 0009409 187.2495 188.4900 12.07465420179599 GLOBALSTAR M033 1 25909U 99049C 26063.16605281 -.00000109 00000+0 -16280-3 0 9993 2 25909 51.9943 337.0862 0015043 78.8151 281.4387 12.20304568567484 GLOBALSTAR M055 1 25910U 99049D 26063.09175582 -.00000059 00000+0 30274-3 0 9995 2 25910 52.0048 335.3845 0006692 317.0657 42.9672 12.29441144200252 GLOBALSTAR M057 1 25943U 99058A 26063.11060255 -.00000046 00000+0 42512-3 0 9998 2 25943 52.0012 330.5363 0002190 175.0176 185.0695 12.24834693198786 GLOBALSTAR M059 1 25944U 99058B 26062.90965262 -.00000097 00000+0 -12909-3 0 9991 2 25944 51.9998 224.5299 0001323 113.5741 21.2428 11.99994952605223 GLOBALSTAR M056 1 25945U 99058C 26062.60891132 -.00000103 00000+0 -18340-3 0 9996 2 25945 51.9943 220.6551 0000946 32.4096 47.2717 12.04785913193890 GLOBALSTAR M031 1 25946U 99058D 26063.14429229 .00000039 00000+0 13122-2 0 9999 2 25946 51.9949 95.9472 0001099 359.7031 35.6670 12.16049603196171 GLOBALSTAR M039 1 25961U 99062A 26062.79518463 -.00000104 00000+0 -35380-5 0 9998 2 25961 51.9834 197.9872 0002708 184.7745 175.3097 12.62342782213006 GLOBALSTAR M034 1 25962U 99062B 26063.12787824 -.00000077 00000+0 64363-4 0 9996 2 25962 51.9881 55.6831 0014215 172.0331 266.8949 11.79455996169068 GLOBALSTAR M029 1 25963U 99062C 26063.15651689 -.00000049 00000+0 45574-3 0 9990 2 25963 51.9791 111.6755 0002245 257.2566 107.3709 11.99908767200333 GLOBALSTAR M061 1 25964U 99062D 26062.79426887 -.00000064 00000+0 26368-3 0 9997 2 25964 51.9767 244.0365 0006982 93.8403 7.6086 11.76778613151741 GLOBALSTAR M063 1 26081U 00008A 26063.19449397 -.00000052 00000+0 45230-3 0 9992 2 26081 51.9944 146.7985 0005129 96.5260 278.0231 11.86181381188431 GLOBALSTAR M062 1 26082U 00008B 26063.16083693 -.00000011 00000+0 62151-3 0 9999 2 26082 51.9857 51.2640 0007223 309.7575 131.5231 12.43480837528969 GLOBALSTAR M060 1 26083U 00008C 26063.11604405 -.00000097 00000+0 -64091-4 0 9996 2 26083 52.0035 48.1803 0003038 294.9277 143.5842 12.17676008184035 GLOBALSTAR M064 1 26084U 00008D 26062.92614975 -.00000093 00000+0 -14502-3 0 9995 2 26084 52.0006 243.2737 0001617 158.8861 201.2038 11.88542353197985 GLOBALSTAR M065 1 31571U 07020A 26063.23060778 -.00000116 00000+0 -69588-4 0 9995 2 31571 51.9891 154.7661 0010339 161.5396 221.4423 12.62020954866244 GLOBALSTAR M069 1 31573U 07020C 26062.64845223 -.00000110 00000+0 -15703-3 0 9990 2 31573 52.0023 190.8413 0000941 285.7479 176.8826 12.23468811865884 GLOBALSTAR M072 1 31574U 07020D 26063.12499977 -.00000083 00000+0 15786-4 0 9996 2 31574 51.9959 19.9486 0001442 97.3832 350.7902 11.91655941862453 GLOBALSTAR M071 1 31576U 07020F 26062.82390118 -.00000153 00000+0 -60827-3 0 9995 2 31576 52.0042 223.2819 0000250 145.6897 359.3091 12.18266583526589 GLOBALSTAR M067 1 32263U 07048A 26063.16465142 -.00000118 00000+0 -15544-3 0 9994 2 32263 51.9762 355.2056 0001055 149.1877 348.8855 12.40684895841755 GLOBALSTAR M070 1 32264U 07048B 26063.16767955 -.00000081 00000+0 12479-3 0 9994 2 32264 51.9758 56.4852 0000424 59.9994 20.9710 12.62331303846505 GLOBALSTAR M066 1 32265U 07048C 26063.12737731 -.00000097 00000+0 -25464-4 0 9997 2 32265 51.9627 359.5095 0004479 175.9780 286.7236 12.30385891847291 GLOBALSTAR M068 1 32266U 07048D 26062.93956084 -.00000073 00000+0 17387-3 0 9997 2 32266 51.9865 230.4318 0001141 40.8848 125.1844 12.62842062850376 GLOBALSTAR M079 1 37188U 10054A 26062.44806741 -.00000095 00000+0 47861-4 0 9991 2 37188 52.0037 70.5538 0000601 114.0427 50.2878 12.62263828709196 GLOBALSTAR M074 1 37189U 10054B 26063.16818155 -.00000099 00000+0 24328-4 0 9991 2 37189 52.0015 67.6443 0000273 126.5843 310.9122 12.62266360709899 GLOBALSTAR M076 1 37190U 10054C 26063.02684490 -.00000100 00000+0 19498-4 0 9996 2 37190 52.0034 68.2687 0000494 138.7317 256.2233 12.62270410709598 GLOBALSTAR M077 1 37191U 10054D 26062.24373961 -.00000080 00000+0 -36574-4 0 9990 2 37191 51.9959 88.3137 0000641 149.7129 289.7295 11.68176369708763 GLOBALSTAR M075 1 37192U 10054E 26063.11550278 -.00000075 00000+0 16310-3 0 9994 2 37192 51.9934 110.1124 0000460 110.7241 267.6227 12.62264795708675 GLOBALSTAR M073 1 37193U 10054F 26063.04947887 -.00000107 00000+0 -16735-4 0 9992 2 37193 52.0083 24.3312 0000520 103.0199 334.0467 12.62269715710655 GLOBALSTAR M083 1 37739U 11033A 26063.15701447 -.00000073 00000+0 17017-3 0 9992 2 37739 51.9882 332.3793 0000767 89.9780 57.6025 12.62267398679682 GLOBALSTAR M088 1 37740U 11033B 26062.80450987 -.00000106 00000+0 -96957-5 0 9995 2 37740 52.0195 239.6246 0000853 94.2964 9.5473 12.62262097675189 GLOBALSTAR M091 1 37741U 11033C 26062.83095775 -.00000110 00000+0 -34753-4 0 9999 2 37741 51.9983 202.6643 0000932 97.2281 66.9437 12.62270210675977 GLOBALSTAR M085 1 37742U 11033D 26063.18015953 -.00000078 00000+0 14622-3 0 9993 2 37742 52.0120 152.8016 0000855 105.0942 267.0200 12.62269433676539 GLOBALSTAR M081 1 37743U 11033E 26063.20735447 -.00000083 00000+0 11691-3 0 9993 2 37743 51.9949 155.2739 0000782 121.0680 254.7801 12.62262625676684 GLOBALSTAR M089 1 37744U 11033F 26063.08877709 -.00000063 00000+0 22781-3 0 9998 2 37744 51.9919 109.8147 0000364 157.4427 219.3161 12.62264601677513 GLOBALSTAR M084 1 38040U 11080A 26063.12903839 -.00000128 00000+0 -13327-3 0 9998 2 38040 52.0036 337.1190 0000351 82.4947 57.1555 12.62265034655498 GLOBALSTAR M080 1 38041U 11080B 26063.18537471 -.00000079 00000+0 14033-3 0 9999 2 38041 52.0085 338.6295 0000991 58.0480 107.1854 12.62266846655621 GLOBALSTAR M082 1 38042U 11080C 26063.03782814 -.00000067 00000+0 20601-3 0 9992 2 38042 52.0076 294.5699 0001098 70.9438 73.4082 12.62267967656315 GLOBALSTAR M092 1 38043U 11080D 26063.07647340 -.00000101 00000+0 13004-4 0 9990 2 38043 52.0105 24.8380 0000364 81.0516 359.0446 12.62264217654775 GLOBALSTAR M090 1 38044U 11080E 26062.81268800 -.00000071 00000+0 18198-3 0 9996 2 38044 52.0119 289.1774 0000922 86.7915 352.8800 12.62271636656409 GLOBALSTAR M086 1 38045U 11080F 26062.83647802 -.00000076 00000+0 15657-3 0 9994 2 38045 51.9897 289.2065 0001298 141.3579 300.9117 12.62283345656355 GLOBALSTAR M097 1 39072U 13005A 26062.76807402 -.00000123 00000+0 -10777-3 0 9992 2 39072 52.0030 204.2367 0001041 109.5673 250.5307 12.62284371603595 GLOBALSTAR M093 1 39073U 13005B 26062.74195992 -.00000110 00000+0 -32836-4 0 9992 2 39073 52.0094 197.6251 0001197 110.3054 249.7941 12.62273232603541 GLOBALSTAR M094 1 39074U 13005C 26063.13804179 -.00000080 00000+0 13312-3 0 9993 2 39074 51.9951 110.6438 0000717 117.3777 242.7163 12.62267014605205 GLOBALSTAR M096 1 39075U 13005D 26062.43852761 -.00000103 00000+0 41286-5 0 9995 2 39075 52.0066 161.4899 0000889 109.1511 250.9452 12.62263276604033 GLOBALSTAR M078 1 39076U 13005E 26062.80785563 -.00000103 00000+0 18939-5 0 9991 2 39076 51.9853 244.5218 0001490 62.8473 297.2545 12.62275925602708 GLOBALSTAR M095 1 39077U 13005F 26062.83447060 -.00000112 00000+0 -45418-4 0 9994 2 39077 52.0060 241.8962 0001366 85.6254 274.4769 12.62276081602562 GLOBALSTAR M087 1 52888U 22064A 26063.16454539 -.00000104 00000+0 -88348-6 0 9992 2 52888 52.0020 22.1887 0000674 84.6895 275.4048 12.62266789177876